This is the latest recevied weather packets stored in our database for station/object KQ4NAL. If no packets are shown the sender has not sent any weather packets the latest 10 day(s).
| Time | Temp. | Humidity | Pressure | Rain* | Wind** | Luminosity | Snow |
|---|---|---|---|---|---|---|---|
| 1777823384 | 15° C | 46% | 1021 hPa | 0 mm | - | 859 W/m² | - |
| 1777823083 | 14.44° C | 44% | 1021 hPa | 0 mm | - | 837 W/m² | - |
| 1777822780 | 14.44° C | 45% | 1020.9 hPa | 0 mm | - | 832 W/m² | - |
| 1777822478 | 14.44° C | 45% | 1021 hPa | 0 mm | - | 843 W/m² | - |
| 1777822175 | 14.44° C | 45% | 1021.1 hPa | 0 mm | - | 869 W/m² | - |
| 1777821872 | 14.44° C | 45% | 1021.2 hPa | 0 mm | - | 875 W/m² | - |
| 1777821569 | 13.89° C | 45% | 1021.2 hPa | 0 mm | - | 878 W/m² | - |
| 1777821268 | 13.89° C | 47% | 1021.2 hPa | 0 mm | - | 874 W/m² | - |
| 1777820964 | 13.33° C | 47% | 1021.2 hPa | 0 mm | - | 861 W/m² | - |
| 1777820661 | 13.33° C | 48% | 1021.1 hPa | 0 mm | - | 832 W/m² | - |
| 1777820357 | 12.78° C | 48% | 1021.1 hPa | 0 mm | - | 809 W/m² | - |
| 1777820055 | 12.78° C | 48% | 1021.2 hPa | 0 mm | - | 779 W/m² | - |
| 1777819751 | 12.78° C | 49% | 1021 hPa | 0 mm | - | 741 W/m² | - |
| 1777819450 | 12.78° C | 45% | 1021.1 hPa | 0 mm | - | 733 W/m² | - |
| 1777819147 | 12.78° C | 49% | 1021 hPa | 0 mm | - | 694 W/m² | - |
| 1777818843 | 12.78° C | 50% | 1021.1 hPa | 0 mm | - | 683 W/m² | - |
| 1777818539 | 12.78° C | 51% | 1021 hPa | 0 mm | - | 676 W/m² | - |
| 1777818238 | 11.67° C | 54% | 1021.3 hPa | 0 mm | - | 654 W/m² | - |
| 1777817933 | 12.22° C | 49% | 1021.1 hPa | 0 mm | - | 674 W/m² | - |
| 1777817631 | 11.67° C | 51% | 1021.1 hPa | 0 mm | - | 635 W/m² | - |
| 1777817327 | 11.67° C | 52% | 1021.3 hPa | 0 mm | - | 602 W/m² | - |
| 1777817024 | 11.11° C | 52% | 1021.3 hPa | 0 mm | - | 564 W/m² | - |
| 1777816720 | 11.67° C | 56% | 1021.3 hPa | 0 mm | - | 520 W/m² | - |
| 1777816418 | 11.11° C | 58% | 1021.3 hPa | 0 mm | - | 489 W/m² | - |
| 1777816116 | 10.56° C | 60% | 1021.3 hPa | 0 mm | - | 511 W/m² | - |
* Rain latest hour (hover to see other rain measurements)
** Current wind speed in m/s (hover to see current wind gust speed)